Flag for U.S.A. Weather past 2 weeks in Shiprock, New Mexico, U.S.A.

Now
35 °F

Passing clouds.


Feels Like: 31 °F
Forecast: 32 / 51 °F
Wind: 5 mph from West

Location: Four Corners Regional Airport

Current Time: Dec 21, 2014 at 9:29:49 PM

Latest Report: Dec 21, 2014 at 7:53 PM


Visibility: 10 mi

Pressure: 29.98 "Hg

Humidity: 78%

Dew point: 29 °F

Location of ShiprockLocation

Historic Weather in Shiprock — Graph

°F

Shiprock temperature yesterday

Maximum temperature yesterday: 41 °F (at 1:53 PM)
Minimum temperature yesterday: 24 °F (at 12:53 AM)
Average temperature yesterday: 32 °F

Past Weeks' High & Low Weather Summary

 TemperatureHumidityPressure
High56 °F (Dec 12, 1:53 PM)100% (Dec 9, 8:53 PM)30.46 "Hg (Dec 9, 8:53 PM)
Low22 °F (Dec 19, 7:01 AM)38% (Dec 11, 1:53 PM)29.86 "Hg (Dec 13, 12:53 PM)
Average35 °F78%30.19 "Hg
* Reported Dec 6 7:53 PM — Dec 21 7:53 PM, Shiprock, Weather by CustomWeather, © 2014

Note: Actual official high and low records may vary slightly from our data, if they occured in-between our weather recording intervals... More about our weather records

Advertising

Shiprock weather history for previous 24 hours

 ConditionsComfort  
Time TempWeatherWind HumidityBarometerVisibility
7:53 PM
Dec 21
35 °FPassing clouds.5 mph78%29.98 "Hg10 mi
6:53 PM36 °FClear.5 mph79%30.01 "Hg10 mi
5:53 PM38 °FPassing clouds.6 mph73%30.00 "Hg10 mi
4:53 PM41 °FSunny.6 mph65%29.99 "Hg10 mi
3:53 PM44 °FSunny.13 mph58%29.98 "Hg10 mi
2:53 PM43 °FSunny.9 mph60%29.98 "Hg10 mi
1:53 PM42 °FSunny.10 mph60%29.98 "Hg10 mi
12:53 PM40 °FSunny.9 mph68%29.99 "Hg10 mi
11:53 AM39 °FSunny.8 mph73%30.06 "Hg10 mi
10:53 AM34 °FSunny.5 mph82%30.12 "Hg10 mi
9:53 AM33 °FSunny.No wind85%30.09 "Hg8 mi
8:53 AM29 °FIce fog.No wind89%30.13 "Hg5 mi
7:53 AM28 °FIce fog.5 mph96%30.13 "Hg6 mi
7:01 AM28 °FPassing clouds.5 mph93%30.05 "Hg8 mi
6:53 AM28 °FClear.3 mph93%30.10 "Hg8 mi
5:53 AM28 °FClear.3 mph93%30.11 "Hg8 mi
4:53 AM29 °FClear.5 mph93%30.10 "Hg10 mi
3:53 AM29 °FClear.5 mph89%30.11 "Hg9 mi
2:53 AM30 °FPassing clouds.6 mph89%30.11 "Hg10 mi
1:53 AM31 °FOvercast.3 mph92%30.12 "Hg10 mi
12:53 AM31 °FPassing clouds.8 mph85%30.12 "Hg10 mi
11:53 PM
Dec 20
33 °FMostly cloudy.3 mph85%30.15 "Hg10 mi
10:53 PM33 °FOvercast.3 mph82%30.16 "Hg10 mi
9:53 PM33 °FPassing clouds.3 mph82%30.14 "Hg10 mi
Weather by CustomWeather, © 2014

See weather overviewHow to use our weather pages